Regional Weather Roundup
Issued by NWS

Home | Current Version | Previous Version | Text Only | Print | Product List | Glossary On
Versions: 1 2 3 4 5 6 7 8 9 10 11 12 13 14 15 16 17 18 19 20 21 22 23 24 25 26 27 28 29 30 31 32 33 34 35 36 37 38 39 40 41 42 43 44 45 46 47 48 49 50
000
ASUS43 KLOT 010012
RWRIL

ILLINOIS REGIONAL WEATHER ROUNDUP
NATIONAL WEATHER SERVICE CHICAGO/ROMEOVILLE IL
700 PM CDT MON AUG 31 2015

NOTE: "FAIR" INDICATES FEW OR NO CLOUDS BELOW 12,000 FEET WITH NO
SIGNIFICANT WEATHER AND/OR OBSTRUCTIONS TO VISIBILITY.

* THESE STATIONS ARE NOT UNDER NWS QUALITY CONTROL. THEY ALSO MAY NOT
  REPORT WEATHER SUCH AS PRECIPITATION OR FOG.

ILZ001-002-007-009-015-016-024-010100-
NORTHWEST ILLINOIS

CITY           SKY/WX    TMP DP  RH WIND       PRES   REMARKS
MOLINE         CLEAR     84  73  69 SE3       29.97F HX  90
6HR MIN TEMP:  84; 6HR MAX TEMP:  88;

STERLING*      CLEAR     82  72  69 S3        29.98R HX  87
SAVANNA*       PTCLDY    83  71  68 E3        29.98F HX  87
$$

ILZ003-004-008-010-011-017-018-010100-
NORTH CENTRAL ILLINOIS

CITY           SKY/WX    TMP DP  RH WIND       PRES   REMARKS
ROCKFORD       CLEAR     81  70  69 S3        30.02S HX  84
6HR MIN TEMP:  81; 6HR MAX TEMP:  85;

FREEPORT*      CLEAR     78  72  80 CALM      30.02S HX  81
ROCHELLE*      CLEAR     79  73  81 CALM      30.01F HX  82
DE KALB*       CLEAR     78  73  82 S3        30.03S HX  81
PERU*          CLEAR     83  68  61 S6        30.01S HX  86
$$

ILZ005-006-012>014-019>023-010100-
NORTHEAST ILLINOIS

CITY           SKY/WX    TMP DP  RH WIND       PRES   REMARKS
CHICAGO-OHARE  PTCLDY    82  68  62 CALM      30.01S HX  85
6HR MIN TEMP:  82; 6HR MAX TEMP:  85;

CHICAGO-MIDWAY PTCLDY    83  68  60 E5        30.00F HX  86
6HR MIN TEMP:  83; 6HR MAX TEMP:  87;

AURORA         CLEAR     83  71  67 S3        30.02S HX  87
6HR MIN TEMP:  83; 6HR MAX TEMP:  86;

LANSING*       CLEAR     80  69  68 S3        30.01F HX  83
JOLIET*        CLEAR     83  71  68 CALM      30.01S HX  87
WAUKEGAN       CLEAR     72  66  81 SE3       30.01F
6HR MIN TEMP:  72; 6HR MAX TEMP:  76;

DUPAGE AIRPORT CLEAR     81  69  67 CALM      30.01S HX  84
6HR MIN TEMP:  80; 6HR MAX TEMP:  85;

KANKAKEE*      CLEAR     81  71  73 CALM      30.03S HX  84
WHEELING       CLEAR     78  68  71 E3        30.02F HX  80
6HR MIN TEMP:  78; 6HR MAX TEMP:  84;

MORRIS*        CLEAR     81  70  69 CALM      30.00S HX  84
ROMEOVILLE*    CLEAR     80  68  67 SW5       30.01F HX  82
NORTHERLY ISL    N/A     73  68  84 CALM        N/A
$$

LMZ740>746-010100-
SOUTHERN LAKE MICHIGAN

STATION/POSITION SKY/WX   TEMP    WIND        PRES    VSBY  WAVE
                          AIR SEA DIR/SP/G                  HT/PER
                          (F)     (DEG/KT/KT) (MB)    (MI)  (FT/S)
SOUTHERN BUOY              70 70  140/  6/  6 1016.3F         0
WILMETTE HARBOR            69 63  360/  2/  2   N/A           0
HARRISON CRIB              73     150/  4/  6   N/A
BURNHAM HARBOR             73      CALM  /  2   N/A
CALUMET HARBOR             74      50/  4/  5   N/A
BURNS HARBOR               75      80/  9/ 10 1016.9S
MICHIGAN CITY              74      30/  9/ 10   N/A
MICHIGAN CITY 6N           74 73   80/  8/ 10   N/A           1
ST. JOSEPH                 73 73  100/  4/  6   N/A           0
$$

ILZ025>027-034>036-040-047-049-050-058-095>099-010100-
WEST-CENTRAL ILLINOIS

CITY           SKY/WX    TMP DP  RH WIND       PRES   REMARKS
QUINCY         CLEAR     85  70  60 SE6       29.97F HX  89
GALESBURG*     CLEAR     82  73  73 SE3       29.99S HX  87
MACOMB*        CLEAR     84  71  63 CALM      30.00F HX  89
JACKSONVILLE*  CLEAR     86  72  62 S5        29.99F HX  92
PITTSFIELD*    CLEAR     85  72  63 S7        30.00F HX  91
$$

ILZ028>032-037-038-041>044-048-051>054-059>061-010100-
CENTRAL ILLINOIS

CITY           SKY/WX    TMP DP  RH WIND       PRES   REMARKS
PONTIAC        CLEAR     83  73  71 S5        30.02S HAZE    HX  88
BLOOMINGTON    PTCLDY    82  73  74 S9        30.04S HX  87
DECATUR        CLEAR     83  69  62 S9        30.03S HX  86
PEORIA         PTCLDY    85  68  56 S5        30.00S HX  88
6HR MIN TEMP:  85; 6HR MAX TEMP:  91;

LACON*         CLEAR     82  72  72 CALM      29.99S HX  87
LINCOLN*       PTCLDY    83  70  63 S6        30.00S HX  87
SPRINGFIELD    PTCLDY    84  70  62 S8        30.01R HX  88
6HR MIN TEMP:  84; 6HR MAX TEMP:  92;

TAYLORVILLE    CLEAR     81  72  74 S5        30.02F HX  84
$$

ILZ033-039-045-046-055>057-062-063-010100-
EAST-CENTRAL ILLINOIS

CITY           SKY/WX    TMP DP  RH WIND       PRES   REMARKS
CHAMPAIGN      CLEAR     81  70  69 S6        30.04S HX  84
RANTOUL*       PTCLDY    83  73  71 SW3       30.03S HX  88
MATTOON        CLEAR     80  68  66 S3        30.04S HX  83
PARIS*         CLEAR     80  71  73 SW3       30.05S HX  84
$$

ILZ079-100>102-010100-
SOUTHWEST ILLINOIS

CITY           SKY/WX    TMP DP  RH WIND       PRES   REMARKS
ALTON          PTCLDY    79  70  73 SE6       30.02  HX  81
BELLEVILLE     PTCLDY    81  75  82 E3        30.01S HX  87
CAHOKIA*       MOCLDY    78  72  81 SE5       30.01S HX  80
SPARTA*        CLEAR     81  73  76 SE3       30.04S HX  86
$$

ILZ064>066-069>071-074>076-080>082-084>086-088>090-092>094-010100-
SOUTH-CENTRAL ILLINOIS

CITY           SKY/WX    TMP DP  RH WIND       PRES   REMARKS
CARBONDALE     CLEAR     82  69  64 S6        30.04S HX  85
6HR MIN TEMP:  82; 6HR MAX TEMP:  86;

CAIRO*         CLEAR     80  73  80 CALM      30.05S HX  84
EFFINGHAM*     CLEAR     81  69  65 SE3       30.05F HX  84
MARION         PTCLDY    82  72  69 CALM      30.05F HX  87
MT. VERNON     CLEAR     82  70  65 S5        30.05S HX  86
SALEM*         CLEAR     84  70  63 S5        30.03F HX  88
METROPOLIS*    CLEAR     82  72  72 CALM      30.06S HX  87
$$

ILZ067-068-072-073-078-083-087-091-010100-
SOUTHEAST ILLINOIS

CITY           SKY/WX    TMP DP  RH WIND       PRES   REMARKS
LAWRENCEVILLE  CLEAR     81  69  67 S6        30.05S HX  84
FLORA*         CLEAR     82  67  61 S5        30.04F HX  84
FAIRFIELD*     CLEAR     82  70  66 S3        30.04S HX  85
HARRISBURG*    CLEAR     82  69  64 S5        30.05F HX  85
ROBINSON*      CLEAR     81  69  67 S5        30.06S HX  83
CARMI*         CLEAR     79  71  75 S5        30.05S HX  82
$$

ABBREVIATIONS USED IN REMARKS
   TC - TEMPERATURE IN CELSIUS
  WCI - WIND CHILL INDEX
   HX - HEAT INDEX
  VSB - VISIBILITY
$$



USA.gov is the U.S. government's official web portal to all federal, state and local government web resources and services.